Home > Products > State Listing > Puerto Rico Data
Latest:
 RWRPR |
  [top]

000
ASCA42 TJSJ 090710
RWRPR
PUERTO RICO/U.S. VIRGIN ISLANDS HOURLY WEATHER ROUNDUP
NATIONAL WEATHER SERVICE SAN JUAN PR
300 AM AST TUE FEB 09 2016

PRZ001-004-090800-
PUERTO RICO

CITY           SKY/WX    TMP DP  RH WIND       PRES   REMARKS
SAN JUAN LMM   CLEAR     75  72  88 CALM      30.02F
PONCE          CLEAR     73  66  78 NE5       29.98F
CEIBA          CLEAR     73  72  94 CALM      30.04F
$$

PRZ006-007-090800-
U.S. VIRGIN ISLANDS

CITY           SKY/WX    TMP DP  RH WIND       PRES   REMARKS
CHARLOTTE AMA  MOCLDY    77  72  83 E9        30.01F
CHRISTIANSTED  MOCLDY    79  72  78 E9        30.02F
$$

HOURLY WEATHER ROUNDUP FOR THE NEWS MEDIA

CITY           SKY/WX    TMP DP  RH WIND       PRES   REMARKS
NEW YORK       FLURRIES  28  22  78 NE9       29.75F WCI  19
NEWARK         LGT SNOW  29  24  82 E6        29.74S WCI  23
CHICAGO        FLURRIES  20  15  81 NW14      29.72F WCI   7
HARTFORD       CLOUDY    22  19  89 VRB6      29.74R WCI  14
BOSTON         FLURRIES  20  16  84 NW9       29.77S WCI   9
DALLAS         CLEAR     43  13  29 N10       30.29S
PHILADELPHIA   LGT SNOW  32  27  81 E8        29.69F FOG     WCI  25
LOS ANGELES    CLEAR     68  30  24 E3        30.13S
WASHINGTON DC  LGT RAIN  37  34  89 CALM      29.60F




000
ASCA42 TJSJ 090610
RWRPR
PUERTO RICO/U.S. VIRGIN ISLANDS HOURLY WEATHER ROUNDUP
NATIONAL WEATHER SERVICE SAN JUAN PR
200 AM AST TUE FEB 09 2016

PRZ001-004-090700-
PUERTO RICO

CITY           SKY/WX    TMP DP  RH WIND       PRES   REMARKS
SAN JUAN LMM   CLEAR     77  70  78 CALM      30.04F
PONCE          PTCLDY    73  70  88 NE6       30.03S
CEIBA          MOCLDY    73  72  94 CALM      30.06F
$$

PRZ006-007-090700-
U.S. VIRGIN ISLANDS

CITY           SKY/WX    TMP DP  RH WIND       PRES   REMARKS
CHARLOTTE AMA  CLEAR     75  72  88 E5        30.04S
CHRISTIANSTED  MOCLDY    77  72  83 NE6       30.04F
$$

HOURLY WEATHER ROUNDUP FOR THE NEWS MEDIA

CITY           SKY/WX    TMP DP  RH WIND       PRES   REMARKS
ORLANDO        CLOUDY    58  39  49 W16G30    29.89S
NEW YORK       CLOUDY    28  23  81 NE12      29.76F WCI  18
NEWARK         FLURRIES  30  24  78 E7        29.74F WCI  23
CHICAGO        FLURRIES  21  16  81 NW13      29.73S WCI   9
HARTFORD       CLOUDY    22  18  85 N8        29.73F WCI  12
BOSTON         FLURRIES  20  16  84 NW9       29.77F WCI   9
DALLAS         CLEAR     43  10  26 NW7       30.29S
PHILADELPHIA   CLOUDY    32  28  85 E9        29.71  WCI  24
LOS ANGELES    CLEAR     69  31  24 CALM      30.13R
WASHINGTON DC  LGT RAIN  37  34  89 S6        29.62F WCI  32



000
ASCA42 TJSJ 090610
RWRPR
PUERTO RICO/U.S. VIRGIN ISLANDS HOURLY WEATHER ROUNDUP
NATIONAL WEATHER SERVICE SAN JUAN PR
200 AM AST TUE FEB 09 2016

PRZ001-004-090700-
PUERTO RICO

CITY           SKY/WX    TMP DP  RH WIND       PRES   REMARKS
SAN JUAN LMM   CLEAR     77  70  78 CALM      30.04F
PONCE          PTCLDY    73  70  88 NE6       30.03S
CEIBA          MOCLDY    73  72  94 CALM      30.06F
$$

PRZ006-007-090700-
U.S. VIRGIN ISLANDS

CITY           SKY/WX    TMP DP  RH WIND       PRES   REMARKS
CHARLOTTE AMA  CLEAR     75  72  88 E5        30.04S
CHRISTIANSTED  MOCLDY    77  72  83 NE6       30.04F
$$

HOURLY WEATHER ROUNDUP FOR THE NEWS MEDIA

CITY           SKY/WX    TMP DP  RH WIND       PRES   REMARKS
ORLANDO        CLOUDY    58  39  49 W16G30    29.89S
NEW YORK       CLOUDY    28  23  81 NE12      29.76F WCI  18
NEWARK         FLURRIES  30  24  78 E7        29.74F WCI  23
CHICAGO        FLURRIES  21  16  81 NW13      29.73S WCI   9
HARTFORD       CLOUDY    22  18  85 N8        29.73F WCI  12
BOSTON         FLURRIES  20  16  84 NW9       29.77F WCI   9
DALLAS         CLEAR     43  10  26 NW7       30.29S
PHILADELPHIA   CLOUDY    32  28  85 E9        29.71  WCI  24
LOS ANGELES    CLEAR     69  31  24 CALM      30.13R
WASHINGTON DC  LGT RAIN  37  34  89 S6        29.62F WCI  32




000
ASCA42 TJSJ 090510
RWRPR
PUERTO RICO/U.S. VIRGIN ISLANDS HOURLY WEATHER ROUNDUP
NATIONAL WEATHER SERVICE SAN JUAN PR
100 AM AST TUE FEB 09 2016

PRZ001-004-090600-
PUERTO RICO

CITY           SKY/WX    TMP DP  RH WIND       PRES   REMARKS
SAN JUAN LMM   CLEAR     77  72  83 CALM      30.06S
PONCE          PTCLDY    73  68  83 NE6       30.03S
CEIBA          CLEAR     73  72  94 CALM      30.08S
$$

PRZ006-007-090600-
U.S. VIRGIN ISLANDS

CITY           SKY/WX    TMP DP  RH WIND       PRES   REMARKS
CHARLOTTE AMA  CLEAR     77  72  83 E6        30.04F
CHRISTIANSTED  PTCLDY    75  72  88 N3        30.05S
$$

HOURLY WEATHER ROUNDUP FOR THE NEWS MEDIA

CITY           SKY/WX    TMP DP  RH WIND       PRES   REMARKS
ORLANDO        CLOUDY    59  45  59 W18G30    29.89R
NEW YORK       FLURRIES  28  24  85 NE9       29.78F WCI  19
NEWARK         FRZ DRZL  30  25  81 NE6       29.76F WCI  24
CHICAGO        FLURRIES  22  16  78 NW15G21   29.73S WCI   9
HARTFORD       CLOUDY    21  17  84 N8G20     29.74F WCI  11
BOSTON         LGT SNOW  21  16  81 N10       29.79F WCI  10
DALLAS         CLEAR     44   9  23 NW8       30.29R
PHILADELPHIA   FLURRIES  32  28  85 E7        29.73  WCI  26
LOS ANGELES    CLEAR     73  28  18 CALM      30.12R
WASHINGTON DC  LGT RAIN  38  33  82 SE8       29.64F WCI  32




000
ASCA42 TJSJ 090410
RWRPR
PUERTO RICO/U.S. VIRGIN ISLANDS HOURLY WEATHER ROUNDUP
NATIONAL WEATHER SERVICE SAN JUAN PR
1200 AM AST TUE FEB 09 2016

PRZ001-004-090500-
PUERTO RICO

CITY           SKY/WX    TMP DP  RH WIND       PRES   REMARKS
SAN JUAN LMM   CLEAR     77  68  73 CALM      30.06S
PONCE          PTCLDY    73  68  83 NE6       30.03
CEIBA          CLEAR     75  72  88 CALM      30.08S
$$

PRZ006-007-090500-
U.S. VIRGIN ISLANDS

CITY           SKY/WX    TMP DP  RH WIND       PRES   REMARKS
CHARLOTTE AMA  CLEAR     75  72  88 E6        30.05F
CHRISTIANSTED  CLEAR     75  70  83 N5        30.05F
$$

HOURLY WEATHER ROUNDUP FOR THE NEWS MEDIA

CITY           SKY/WX    TMP DP  RH WIND       PRES   REMARKS
ORLANDO        PTCLDY    60  50  69 SW14      29.85F
NEW YORK       FLURRIES  29  24  82 E9        29.80F WCI  20
NEWARK         LGT SNOW  30  25  81 NE7       29.77F WCI  23
CHICAGO        LGT SNOW  23  19  85 W13       29.74S FOG     WCI  11
HARTFORD       LGT SNOW  21  18  88 N8        29.75S FOG     WCI  11
BOSTON         LGT SNOW  21  16  81 N12       29.80S WCI   9
DALLAS         CLEAR     45   9  23 NW9       30.27S
PHILADELPHIA   LGT SNOW  32  28  85 E7        29.74  FOG     WCI  26
LOS ANGELES    CLEAR     73  30  20 CALM      30.10R
WASHINGTON DC  CLOUDY    38  32  79 SE12      29.65F WCI  30




000
ASCA42 TJSJ 090410
RWRPR
PUERTO RICO/U.S. VIRGIN ISLANDS HOURLY WEATHER ROUNDUP
NATIONAL WEATHER SERVICE SAN JUAN PR
1200 AM AST TUE FEB 09 2016

PRZ001-004-090500-
PUERTO RICO

CITY           SKY/WX    TMP DP  RH WIND       PRES   REMARKS
SAN JUAN LMM   CLEAR     77  68  73 CALM      30.06S
PONCE          PTCLDY    73  68  83 NE6       30.03
CEIBA          CLEAR     75  72  88 CALM      30.08S
$$

PRZ006-007-090500-
U.S. VIRGIN ISLANDS

CITY           SKY/WX    TMP DP  RH WIND       PRES   REMARKS
CHARLOTTE AMA  CLEAR     75  72  88 E6        30.05F
CHRISTIANSTED  CLEAR     75  70  83 N5        30.05F
$$

HOURLY WEATHER ROUNDUP FOR THE NEWS MEDIA

CITY           SKY/WX    TMP DP  RH WIND       PRES   REMARKS
ORLANDO        PTCLDY    60  50  69 SW14      29.85F
NEW YORK       FLURRIES  29  24  82 E9        29.80F WCI  20
NEWARK         LGT SNOW  30  25  81 NE7       29.77F WCI  23
CHICAGO        LGT SNOW  23  19  85 W13       29.74S FOG     WCI  11
HARTFORD       LGT SNOW  21  18  88 N8        29.75S FOG     WCI  11
BOSTON         LGT SNOW  21  16  81 N12       29.80S WCI   9
DALLAS         CLEAR     45   9  23 NW9       30.27S
PHILADELPHIA   LGT SNOW  32  28  85 E7        29.74  FOG     WCI  26
LOS ANGELES    CLEAR     73  30  20 CALM      30.10R
WASHINGTON DC  CLOUDY    38  32  79 SE12      29.65F WCI  30




000
ASCA42 TJSJ 090310
RWRPR
PUERTO RICO/U.S. VIRGIN ISLANDS HOURLY WEATHER ROUNDUP
NATIONAL WEATHER SERVICE SAN JUAN PR
1100 PM AST MON FEB 08 2016

PRZ001-004-090400-
PUERTO RICO

CITY           SKY/WX    TMP DP  RH WIND       PRES   REMARKS
SAN JUAN LMM   CLEAR     75  68  78 CALM      30.06R
CEIBA          CLEAR     75  72  88 SE3       30.08S
$$

PRZ006-007-090400-
U.S. VIRGIN ISLANDS

CITY           SKY/WX    TMP DP  RH WIND       PRES   REMARKS
CHARLOTTE AMA  CLEAR     79  72  78 E6        30.06R
CHRISTIANSTED  CLEAR     75  70  83 N5        30.06S
$$

HOURLY WEATHER ROUNDUP FOR THE NEWS MEDIA

CITY           SKY/WX    TMP DP  RH WIND       PRES   REMARKS
ORLANDO        CLEAR     60  49  66 SW10      29.86F
NEW YORK       FLURRIES  29  23  78 NE8       29.82S WCI  21
NEWARK         FLURRIES  30  23  75 NE7       29.80F WCI  23
CHICAGO        LGT SNOW  24  19  81 NW13      29.74S WCI  12
HARTFORD       MIX PCPN  21  18  88 N9G17     29.75S FOG     WCI  11
BOSTON         LGT SNOW  20  16  84 N17G24    29.80S FOG     WCI   5
DALLAS         CLEAR     48   7  18 NW9       30.27S
PHILADELPHIA   LGT SNOW  33  27  78 SE9       29.76  WCI  25
LOS ANGELES    CLEAR     74  29  19 W3        30.09R
WASHINGTON DC  DRIZZLE   39  31  72 SE8       29.67F WCI  33




000
ASCA42 TJSJ 090210
RWRPR
PUERTO RICO/U.S. VIRGIN ISLANDS HOURLY WEATHER ROUNDUP
NATIONAL WEATHER SERVICE SAN JUAN PR
1000 PM AST MON FEB 08 2016

PRZ001-004-090300-
PUERTO RICO

CITY           SKY/WX    TMP DP  RH WIND       PRES   REMARKS
SAN JUAN LMM   CLEAR     77  70  78 E5        30.04S
CEIBA          PTCLDY    75  72  88 CALM      30.08R
$$

PRZ006-007-090300-
U.S. VIRGIN ISLANDS

CITY           SKY/WX    TMP DP  RH WIND       PRES   REMARKS
CHARLOTTE AMA  CLEAR     79  72  78 E7        30.05R
CHRISTIANSTED  PTCLDY    75  70  83 N5        30.06R
$$

HOURLY WEATHER ROUNDUP FOR THE NEWS MEDIA

CITY           SKY/WX    TMP DP  RH WIND       PRES   REMARKS
ORLANDO        MOCLDY    61  46  57 SW10      29.88F
NEW YORK       FLURRIES  29  24  82 NE7       29.82R WCI  22
NEWARK         CLOUDY    31  23  72 NE12      29.81R WCI  22
CHICAGO        CLOUDY    25  18  74 NW16      29.74S WCI  12
HARTFORD       CLOUDY    21  18  88 VRB6G22   29.75R FOG     WCI  13
BOSTON         LGT SNOW  20  16  84 N13       29.80R FOG     WCI   7
DALLAS         CLEAR     49   8  19 NW10      30.27R
PHILADELPHIA   LGT RAIN  36  24  62 SE12      29.77S WCI  28
LOS ANGELES    CLEAR     73  34  23 W7        30.08R
WASHINGTON DC  CLOUDY    39  31  72 SE10      29.68F WCI  32




000
ASCA42 TJSJ 090210
RWRPR
PUERTO RICO/U.S. VIRGIN ISLANDS HOURLY WEATHER ROUNDUP
NATIONAL WEATHER SERVICE SAN JUAN PR
1000 PM AST MON FEB 08 2016

PRZ001-004-090300-
PUERTO RICO

CITY           SKY/WX    TMP DP  RH WIND       PRES   REMARKS
SAN JUAN LMM   CLEAR     77  70  78 E5        30.04S
CEIBA          PTCLDY    75  72  88 CALM      30.08R
$$

PRZ006-007-090300-
U.S. VIRGIN ISLANDS

CITY           SKY/WX    TMP DP  RH WIND       PRES   REMARKS
CHARLOTTE AMA  CLEAR     79  72  78 E7        30.05R
CHRISTIANSTED  PTCLDY    75  70  83 N5        30.06R
$$

HOURLY WEATHER ROUNDUP FOR THE NEWS MEDIA

CITY           SKY/WX    TMP DP  RH WIND       PRES   REMARKS
ORLANDO        MOCLDY    61  46  57 SW10      29.88F
NEW YORK       FLURRIES  29  24  82 NE7       29.82R WCI  22
NEWARK         CLOUDY    31  23  72 NE12      29.81R WCI  22
CHICAGO        CLOUDY    25  18  74 NW16      29.74S WCI  12
HARTFORD       CLOUDY    21  18  88 VRB6G22   29.75R FOG     WCI  13
BOSTON         LGT SNOW  20  16  84 N13       29.80R FOG     WCI   7
DALLAS         CLEAR     49   8  19 NW10      30.27R
PHILADELPHIA   LGT RAIN  36  24  62 SE12      29.77S WCI  28
LOS ANGELES    CLEAR     73  34  23 W7        30.08R
WASHINGTON DC  CLOUDY    39  31  72 SE10      29.68F WCI  32



000
ASCA42 TJSJ 090210
RWRPR
PUERTO RICO/U.S. VIRGIN ISLANDS HOURLY WEATHER ROUNDUP
NATIONAL WEATHER SERVICE SAN JUAN PR
1000 PM AST MON FEB 08 2016

PRZ001-004-090300-
PUERTO RICO

CITY           SKY/WX    TMP DP  RH WIND       PRES   REMARKS
SAN JUAN LMM   CLEAR     77  70  78 E5        30.04S
CEIBA          PTCLDY    75  72  88 CALM      30.08R
$$

PRZ006-007-090300-
U.S. VIRGIN ISLANDS

CITY           SKY/WX    TMP DP  RH WIND       PRES   REMARKS
CHARLOTTE AMA  CLEAR     79  72  78 E7        30.05R
CHRISTIANSTED  PTCLDY    75  70  83 N5        30.06R
$$

HOURLY WEATHER ROUNDUP FOR THE NEWS MEDIA

CITY           SKY/WX    TMP DP  RH WIND       PRES   REMARKS
ORLANDO        MOCLDY    61  46  57 SW10      29.88F
NEW YORK       FLURRIES  29  24  82 NE7       29.82R WCI  22
NEWARK         CLOUDY    31  23  72 NE12      29.81R WCI  22
CHICAGO        CLOUDY    25  18  74 NW16      29.74S WCI  12
HARTFORD       CLOUDY    21  18  88 VRB6G22   29.75R FOG     WCI  13
BOSTON         LGT SNOW  20  16  84 N13       29.80R FOG     WCI   7
DALLAS         CLEAR     49   8  19 NW10      30.27R
PHILADELPHIA   LGT RAIN  36  24  62 SE12      29.77S WCI  28
LOS ANGELES    CLEAR     73  34  23 W7        30.08R
WASHINGTON DC  CLOUDY    39  31  72 SE10      29.68F WCI  32




000
ASCA42 TJSJ 090110
RWRPR
PUERTO RICO/U.S. VIRGIN ISLANDS HOURLY WEATHER ROUNDUP
NATIONAL WEATHER SERVICE SAN JUAN PR
900 PM AST MON FEB 08 2016

PRZ001-004-090200-
PUERTO RICO

CITY           SKY/WX    TMP DP  RH WIND       PRES   REMARKS
SAN JUAN LMM   CLEAR     79  68  69 SE3       30.04R
AGUADILLA      PTCLDY    79  73  83 NE6       30.04R
CEIBA          MOCLDY    73  72  94 CALM      30.06R
$$

PRZ006-007-090200-
U.S. VIRGIN ISLANDS

CITY           SKY/WX    TMP DP  RH WIND       PRES   REMARKS
CHARLOTTE AMA  CLEAR     79  72  78 E8        30.04R
CHRISTIANSTED  PTCLDY    75  70  83 N5        30.05R
$$

HOURLY WEATHER ROUNDUP FOR THE NEWS MEDIA

CITY           SKY/WX    TMP DP  RH WIND       PRES   REMARKS
ORLANDO        MOCLDY    62  44  51 SW14G22   29.89R
NEW YORK       FLURRIES  28  25  86 NE8       29.81R WCI  20
NEWARK         FLURRIES  31  24  75 NE10      29.79S WCI  22
CHICAGO        CLOUDY    26  19  74 W14       29.74R WCI  14
HARTFORD       LGT SNOW  21  18  88 N8        29.73S FOG     WCI  11
BOSTON         LGT SNOW  20  16  84 N14       29.79S FOG     WCI   7
DALLAS         PTCLDY    50   9  19 N10       30.26R
PHILADELPHIA   CLOUDY    37  24  59 E9        29.77R WCI  30
LOS ANGELES    CLEAR     79  26  14 SW7       30.07S
WASHINGTON DC  CLOUDY    41  28  60 SE8       29.69S




000
ASCA42 TJSJ 090110
RWRPR
PUERTO RICO/U.S. VIRGIN ISLANDS HOURLY WEATHER ROUNDUP
NATIONAL WEATHER SERVICE SAN JUAN PR
900 PM AST MON FEB 08 2016

PRZ001-004-090200-
PUERTO RICO

CITY           SKY/WX    TMP DP  RH WIND       PRES   REMARKS
SAN JUAN LMM   CLEAR     79  68  69 SE3       30.04R
AGUADILLA      PTCLDY    79  73  83 NE6       30.04R
CEIBA          MOCLDY    73  72  94 CALM      30.06R
$$

PRZ006-007-090200-
U.S. VIRGIN ISLANDS

CITY           SKY/WX    TMP DP  RH WIND       PRES   REMARKS
CHARLOTTE AMA  CLEAR     79  72  78 E8        30.04R
CHRISTIANSTED  PTCLDY    75  70  83 N5        30.05R
$$

HOURLY WEATHER ROUNDUP FOR THE NEWS MEDIA

CITY           SKY/WX    TMP DP  RH WIND       PRES   REMARKS
ORLANDO        MOCLDY    62  44  51 SW14G22   29.89R
NEW YORK       FLURRIES  28  25  86 NE8       29.81R WCI  20
NEWARK         FLURRIES  31  24  75 NE10      29.79S WCI  22
CHICAGO        CLOUDY    26  19  74 W14       29.74R WCI  14
HARTFORD       LGT SNOW  21  18  88 N8        29.73S FOG     WCI  11
BOSTON         LGT SNOW  20  16  84 N14       29.79S FOG     WCI   7
DALLAS         PTCLDY    50   9  19 N10       30.26R
PHILADELPHIA   CLOUDY    37  24  59 E9        29.77R WCI  30
LOS ANGELES    CLEAR     79  26  14 SW7       30.07S
WASHINGTON DC  CLOUDY    41  28  60 SE8       29.69S




000
ASCA42 TJSJ 090110
RWRPR
PUERTO RICO/U.S. VIRGIN ISLANDS HOURLY WEATHER ROUNDUP
NATIONAL WEATHER SERVICE SAN JUAN PR
900 PM AST MON FEB 08 2016

PRZ001-004-090200-
PUERTO RICO

CITY           SKY/WX    TMP DP  RH WIND       PRES   REMARKS
SAN JUAN LMM   CLEAR     79  68  69 SE3       30.04R
AGUADILLA      PTCLDY    79  73  83 NE6       30.04R
CEIBA          MOCLDY    73  72  94 CALM      30.06R
$$

PRZ006-007-090200-
U.S. VIRGIN ISLANDS

CITY           SKY/WX    TMP DP  RH WIND       PRES   REMARKS
CHARLOTTE AMA  CLEAR     79  72  78 E8        30.04R
CHRISTIANSTED  PTCLDY    75  70  83 N5        30.05R
$$

HOURLY WEATHER ROUNDUP FOR THE NEWS MEDIA

CITY           SKY/WX    TMP DP  RH WIND       PRES   REMARKS
ORLANDO        MOCLDY    62  44  51 SW14G22   29.89R
NEW YORK       FLURRIES  28  25  86 NE8       29.81R WCI  20
NEWARK         FLURRIES  31  24  75 NE10      29.79S WCI  22
CHICAGO        CLOUDY    26  19  74 W14       29.74R WCI  14
HARTFORD       LGT SNOW  21  18  88 N8        29.73S FOG     WCI  11
BOSTON         LGT SNOW  20  16  84 N14       29.79S FOG     WCI   7
DALLAS         PTCLDY    50   9  19 N10       30.26R
PHILADELPHIA   CLOUDY    37  24  59 E9        29.77R WCI  30
LOS ANGELES    CLEAR     79  26  14 SW7       30.07S
WASHINGTON DC  CLOUDY    41  28  60 SE8       29.69S



000
ASCA42 TJSJ 090010
RWRPR
PUERTO RICO/U.S. VIRGIN ISLANDS HOURLY WEATHER ROUNDUP
NATIONAL WEATHER SERVICE SAN JUAN PR
800 PM AST MON FEB 08 2016

PRZ001-004-090100-
PUERTO RICO

CITY           SKY/WX    TMP DP  RH WIND       PRES   REMARKS
SAN JUAN LMM   CLEAR     81  70  69 S3        30.02R
AGUADILLA      PTCLDY    79  72  78 NE5       30.02R
CEIBA          CLEAR     73  72  94 CALM      30.04R
$$

PRZ006-007-090100-
U.S. VIRGIN ISLANDS

CITY           SKY/WX    TMP DP  RH WIND       PRES   REMARKS
CHARLOTTE AMA  PTCLDY    81  72  74 E8        30.02R
CHRISTIANSTED  PTCLDY    79  72  78 E7        30.02R
$$

HOURLY WEATHER ROUNDUP FOR THE NEWS MEDIA

CITY           SKY/WX    TMP DP  RH WIND       PRES   REMARKS
ORLANDO        CLEAR     62  42  47 SW14G23   29.88F
NEW YORK       FLURRIES  30  24  78 NE14      29.80R WCI  19
NEWARK         FLURRIES  33  24  69 NE9       29.79R WCI  25
CHICAGO        CLOUDY    27  19  72 W12       29.73R WCI  17
HARTFORD       LGT SNOW  22  18  85 VRB7G18   29.72R FOG     WCI  13
BOSTON         LGT SNOW  20  16  84 N14G23    29.79R FOG     WCI   7
DALLAS         PTCLDY    53   6  15 NW20G25   30.25R
PHILADELPHIA   CLOUDY    38  24  57 E7        29.76R WCI  33
LOS ANGELES    SUNNY     81  28  14 W8        30.07S
WASHINGTON DC  CLOUDY    42  26  53 SE10      29.69R




000
ASCA42 TJSJ 082310
RWRPR
PUERTO RICO/U.S. VIRGIN ISLANDS HOURLY WEATHER ROUNDUP
NATIONAL WEATHER SERVICE SAN JUAN PR
700 PM AST MON FEB 08 2016

PRZ001-004-090000-
PUERTO RICO

CITY           SKY/WX    TMP DP  RH WIND       PRES   REMARKS
SAN JUAN LMM   PTCLDY    81  68  65 S7        29.99R
AGUADILLA      PTCLDY    79  72  78 NE7       30.00S
CEIBA          CLEAR     77  72  83 S3        30.02R
$$

PRZ006-007-090000-
U.S. VIRGIN ISLANDS

CITY           SKY/WX    TMP DP  RH WIND       PRES   REMARKS
CHARLOTTE AMA  CLEAR     79  72  78 SE9       30.00R
CHRISTIANSTED  PTCLDY    81  72  74 E9        30.01R
$$

HOURLY WEATHER ROUNDUP FOR THE NEWS MEDIA

CITY           SKY/WX    TMP DP  RH WIND       PRES   REMARKS
ORLANDO        CLOUDY    64  41  42 W23G32    29.89F
NEW YORK       FLURRIES  31  24  75 NE8       29.78R WCI  23
NEWARK         FLURRIES  33  23  66 NE6       29.77R WCI  28
CHICAGO        CLOUDY    27  19  72 W14       29.72R WCI  16
HARTFORD       LGT SNOW  22  18  85 N10G17    29.70R FOG     WCI  11
BOSTON         LGT SNOW  21  16  81 N17       29.76R FOG     WCI   7
DALLAS         MOSUNNY   55   5  13 NW26G38   30.23F
PHILADELPHIA   CLOUDY    39  25  57 E10       29.75R WCI  32
LOS ANGELES    SUNNY     83  27  13 W12       30.07F
WASHINGTON DC  CLOUDY    42  25  50 S6        29.67R



000
ASCA42 TJSJ 082310
RWRPR
PUERTO RICO/U.S. VIRGIN ISLANDS HOURLY WEATHER ROUNDUP
NATIONAL WEATHER SERVICE SAN JUAN PR
700 PM AST MON FEB 08 2016

PRZ001-004-090000-
PUERTO RICO

CITY           SKY/WX    TMP DP  RH WIND       PRES   REMARKS
SAN JUAN LMM   PTCLDY    81  68  65 S7        29.99R
AGUADILLA      PTCLDY    79  72  78 NE7       30.00S
CEIBA          CLEAR     77  72  83 S3        30.02R
$$

PRZ006-007-090000-
U.S. VIRGIN ISLANDS

CITY           SKY/WX    TMP DP  RH WIND       PRES   REMARKS
CHARLOTTE AMA  CLEAR     79  72  78 SE9       30.00R
CHRISTIANSTED  PTCLDY    81  72  74 E9        30.01R
$$

HOURLY WEATHER ROUNDUP FOR THE NEWS MEDIA

CITY           SKY/WX    TMP DP  RH WIND       PRES   REMARKS
ORLANDO        CLOUDY    64  41  42 W23G32    29.89F
NEW YORK       FLURRIES  31  24  75 NE8       29.78R WCI  23
NEWARK         FLURRIES  33  23  66 NE6       29.77R WCI  28
CHICAGO        CLOUDY    27  19  72 W14       29.72R WCI  16
HARTFORD       LGT SNOW  22  18  85 N10G17    29.70R FOG     WCI  11
BOSTON         LGT SNOW  21  16  81 N17       29.76R FOG     WCI   7
DALLAS         MOSUNNY   55   5  13 NW26G38   30.23F
PHILADELPHIA   CLOUDY    39  25  57 E10       29.75R WCI  32
LOS ANGELES    SUNNY     83  27  13 W12       30.07F
WASHINGTON DC  CLOUDY    42  25  50 S6        29.67R




000
ASCA42 TJSJ 082310
RWRPR
PUERTO RICO/U.S. VIRGIN ISLANDS HOURLY WEATHER ROUNDUP
NATIONAL WEATHER SERVICE SAN JUAN PR
700 PM AST MON FEB 08 2016

PRZ001-004-090000-
PUERTO RICO

CITY           SKY/WX    TMP DP  RH WIND       PRES   REMARKS
SAN JUAN LMM   PTCLDY    81  68  65 S7        29.99R
AGUADILLA      PTCLDY    79  72  78 NE7       30.00S
CEIBA          CLEAR     77  72  83 S3        30.02R
$$

PRZ006-007-090000-
U.S. VIRGIN ISLANDS

CITY           SKY/WX    TMP DP  RH WIND       PRES   REMARKS
CHARLOTTE AMA  CLEAR     79  72  78 SE9       30.00R
CHRISTIANSTED  PTCLDY    81  72  74 E9        30.01R
$$

HOURLY WEATHER ROUNDUP FOR THE NEWS MEDIA

CITY           SKY/WX    TMP DP  RH WIND       PRES   REMARKS
ORLANDO        CLOUDY    64  41  42 W23G32    29.89F
NEW YORK       FLURRIES  31  24  75 NE8       29.78R WCI  23
NEWARK         FLURRIES  33  23  66 NE6       29.77R WCI  28
CHICAGO        CLOUDY    27  19  72 W14       29.72R WCI  16
HARTFORD       LGT SNOW  22  18  85 N10G17    29.70R FOG     WCI  11
BOSTON         LGT SNOW  21  16  81 N17       29.76R FOG     WCI   7
DALLAS         MOSUNNY   55   5  13 NW26G38   30.23F
PHILADELPHIA   CLOUDY    39  25  57 E10       29.75R WCI  32
LOS ANGELES    SUNNY     83  27  13 W12       30.07F
WASHINGTON DC  CLOUDY    42  25  50 S6        29.67R




000
ASCA42 TJSJ 082210
RWRPR
PUERTO RICO/U.S. VIRGIN ISLANDS HOURLY WEATHER ROUNDUP
NATIONAL WEATHER SERVICE SAN JUAN PR
600 PM AST MON FEB 08 2016

PRZ001-004-082300-
PUERTO RICO

CITY           SKY/WX    TMP DP  RH WIND       PRES   REMARKS
SAN JUAN LMM   PTCLDY    82  68  61 S7        29.98R
AGUADILLA      MOCLDY    79  72  78 NE8       30.00R
CEIBA          CLEAR     81  72  74 S7        30.01S
$$

PRZ006-007-082300-
U.S. VIRGIN ISLANDS

CITY           SKY/WX    TMP DP  RH WIND       PRES   REMARKS
CHARLOTTE AMA  CLEAR     81  72  74 SE10      29.99R
CHRISTIANSTED  PTCLDY    81  72  74 E8        30.00S
$$

HOURLY WEATHER ROUNDUP FOR THE NEWS MEDIA

CITY           SKY/WX    TMP DP  RH WIND       PRES   REMARKS
ORLANDO        MOSUNNY   65  43  44 SW18G24   29.90S
NEW YORK       FLURRIES  31  23  72 N10       29.77R WCI  22
NEWARK         CLOUDY    34  23  64 NE6       29.76R WCI  29
CHICAGO        CLOUDY    27  20  75 NW13      29.70R WCI  16
HARTFORD       LGT SNOW  22  18  85 NW12G22   29.67R FOG     WCI  10
BOSTON         SNOW      21  15  78 N15G30    29.74R VSB 1/2 WCI   8
DALLAS         MOSUNNY   56   8  14 NW22G39   30.24F
PHILADELPHIA   CLOUDY    42  25  50 E3        29.73S
LOS ANGELES    SUNNY     88  24  10 VRB3      30.08F
WASHINGTON DC  CLOUDY    44  26  49 SE8       29.66F




000
ASCA42 TJSJ 082110
RWRPR
PUERTO RICO/U.S. VIRGIN ISLANDS HOURLY WEATHER ROUNDUP
NATIONAL WEATHER SERVICE SAN JUAN PR
500 PM AST MON FEB 08 2016

PRZ001-004-082200-
PUERTO RICO

CITY           SKY/WX    TMP DP  RH WIND       PRES   REMARKS
SAN JUAN LMM   MOSUNNY   84  66  54 S12       29.96S
AGUADILLA      MOSUNNY   81  72  74 NE6       29.98S
CEIBA          SUNNY     82  72  69 S7        30.01R
$$

PRZ006-007-082200-
U.S. VIRGIN ISLANDS

CITY           SKY/WX    TMP DP  RH WIND       PRES   REMARKS
CHARLOTTE AMA  SUNNY     81  72  74 E9        29.98F
CHRISTIANSTED  MOSUNNY   82  72  69 SE9       30.00S
$$

HOURLY WEATHER ROUNDUP FOR THE NEWS MEDIA

CITY           SKY/WX    TMP DP  RH WIND       PRES   REMARKS
ORLANDO        PTSUNNY   67  43  41 SW18G25   29.90F
NEW YORK       FLURRIES  31  23  72 NE16G24   29.74S WCI  20
NEWARK         CLOUDY    35  23  61 NE13      29.73S WCI  26
CHICAGO        CLOUDY    28  21  75 W14       29.68R WCI  17
HARTFORD       LGT SNOW  23  19  85 N12G24    29.63R FOG     WCI  12
BOSTON         SNOW      20  15  81 N18G28    29.73R VSB 1/2 WCI   5
DALLAS         MOSUNNY   55   9  16 N26G37    30.25F
PHILADELPHIA   CLOUDY    42  25  50 SE3       29.73R
LOS ANGELES    SUNNY     86  23  10 CALM      30.10F
WASHINGTON DC  PTSUNNY   44  24  45 SE6       29.67S




000
ASCA42 TJSJ 082010
RWRPR
PUERTO RICO/U.S. VIRGIN ISLANDS HOURLY WEATHER ROUNDUP
NATIONAL WEATHER SERVICE SAN JUAN PR
400 PM AST MON FEB 08 2016

PRZ001-004-082100-
PUERTO RICO

CITY           SKY/WX    TMP DP  RH WIND       PRES   REMARKS
SAN JUAN LMM   MOSUNNY   86  66  51 SE10G16   29.96S
AGUADILLA      SUNNY     81  70  69 NE8       29.98F
CEIBA          MOSUNNY   82  73  74 S9        30.00F
$$

PRZ006-007-082100-
U.S. VIRGIN ISLANDS

CITY           SKY/WX    TMP DP  RH WIND       PRES   REMARKS
CHARLOTTE AMA  SUNNY     81  72  74 SE12      29.99S
CHRISTIANSTED  MOSUNNY   82  72  69 SE8       30.00S
$$

HOURLY WEATHER ROUNDUP FOR THE NEWS MEDIA

CITY           SKY/WX    TMP DP  RH WIND       PRES   REMARKS
ORLANDO        MOSUNNY   65  42  43 W16G24    29.93F
NEW YORK       CLOUDY    32  24  72 N14G22    29.74S WCI  22
NEWARK         CLOUDY    36  21  54 NE14      29.73S WCI  27
CHICAGO        FLURRIES  27  22  81 W15       29.66S WCI  15
HARTFORD       LGT SNOW  24  20  84 N9G26     29.61S VSB 1   WCI  14
BOSTON         SNOW      20  15  81 N16G26    29.72F VSB 1/2 WCI   6
DALLAS         MOSUNNY   55   9  16 N28G33    30.27F
PHILADELPHIA   CLOUDY    43  25  49 E6        29.71F
LOS ANGELES    SUNNY     84  25  11 VRB3      30.12F
WASHINGTON DC  CLOUDY    46  25  43 VRB5      29.67F




    US Dept of Commerce
    National Oceanic and Atmospheric Administration
    National Weather Service
    1325 East West Highway
    Silver Spring, MD 20910
    Page Author: NWS Internet Services Team
Disclaimer
Information Quality
Credits
Glossary
Privacy Policy
Freedom of Information Act (FOIA)
About Us
Career Opportunities